Meteopurmerend
purmerend
Purmerend - Baaienwijk



My webcam  My webcam


waarschuwing voor Onweer Meer informatie blitzortung!


Regen radar Meer informatie rain snow radar


Bezoek onze andere website:

CandyAppleRed WebdesignWebdesign Purmerend Candy Apple Red

MeteopurmerendBlog

Template documentation
and downloads



Onweer van: 26-07-2021 13:00 tot: 21:00 waarschuwing voor: Onweer niveau: Geel info button
Enkele onweersbuien, lokaal met hagel en veel neerslag in korte tijd.Kans op blikseminslag, hagel en veel neerslag in korte tijd.Verkeer en buitenactiviteiten kunnen hinder ondervinden.Mijd open water en open gebied, schuil niet onder bomen.Volg weerberichten en waarschuwingen.

15 daagse weersverwachting Amsterdam (NL)

  • Overzicht
  • Per uur
  • 15 dagen
  • Extra
  • Vergelijk
  • Kaarten
  • Dagkaart
  • Meer »
  • Info
  • Statistieken
  • Directe link
    Temp 6h Neerslag Wind  
 05:54     21:41    Daglengte: 15:47 Vandaag
20:00
19°
7.7 mm
4
 05:56     21:39    Daglengte: 15:43 Morgen
02:00
16°
4.2 mm
3
08:00
17°
 
4
14:00
21°
 
4
20:00
19°
9.8 mm
2
warningclass
 05:57     21:38    Daglengte: 15:41 Woensdag 28 Jul
02:00
16°
 
4
08:00
16°
 
5
14:00
19°
9.6 mm
8
20:00
17°
14.2 mm
8
 05:59     21:36    Daglengte: 15:37 Donderdag 29 Jul
02:00
15°
20.8 mm
7
08:00
16°
25.5 mm
6
14:00
19°
 
8
Locatie info
Region: Noord-Holland
Latitude: 52.3699°N
Longitude: 4.9079°E
13 masl
Postcode: 1012
Temp/Neerslag /Baro Onweer/Dauwpunt
    Temp Baro 1h Neerslag Dauwpunt Wind UV Bewolking  
 05:54     21:41    Daglengte: 15:47 Vandaag
17:00
20°
1008.7 hPa 2.8 mm
48%
17.3°
4
Windvlaag: 5.4 m/s
80%
18:00
19°
1008.7 hPa 2.0 mm
82%
16.6°
4
Windvlaag: 5.4 m/s
76% warningclass
19:00
19°
1008.7 hPa 1.6 mm
82%
16.8°
3
Windvlaag: 4.5 m/s
66%
20:00
19°
1008.7 hPa 1.3 mm
82%
16.8°
4
Windvlaag: 5 m/s
75%
21:00
18°
1009.0 hPa 1.4 mm
82%
17.0°
4
Windvlaag: 5.5 m/s
77% warningclass
22:00
18°
1009.4 hPa 1.4 mm
82%
16.9°
3
Windvlaag: 4.4 m/s
78% warningclass
23:00
17°
1009.8 hPa 1.5 mm
78%
16.6°
3
Windvlaag: 1.3 m/s
85%
 05:56     21:39    Daglengte: 15:43 Morgen
00:00
17°
1010.2 hPa
67%
16.2°
4
Windvlaag: 2.4 m/s
69%
01:00
17°
1010.1 hPa
20%
15.8°
4
Windvlaag: 2.7 m/s
39%
02:00
16°
1010.0 hPa
14%
15.3°
3
Windvlaag: 3.4 m/s
17%
03:00
16°
1010.1 hPa
14%
15.5°
3
Windvlaag: 3.3 m/s
18%
04:00
16°
1010.0 hPa
14%
15.5°
2
Windvlaag: 4.4 m/s
24%
05:00
16°
1009.8 hPa
19%
15.8°
2
Windvlaag: 5.3 m/s
57%
06:00
16°
1009.6 hPa
15%
15.9°
3
Windvlaag: 6.2 m/s
34%
07:00
16°
1009.8 hPa
14%
15.8°
3
Windvlaag: 6.7 m/s
51%
08:00
17°
1009.9 hPa
14%
15.5°
4
Windvlaag: 6 m/s
80%
09:00
17°
1010.1 hPa
14%
15.2°
4
Windvlaag: 7.1 m/s
79%
10:00
18°
1010.2 hPa
14%
15.2°
4
Windvlaag: 7.1 m/s
51%
11:00
19°
1010.2 hPa
14%
15.5°
5
Windvlaag: 7.4 m/s
74%
12:00
20°
1010.1 hPa
14%
15.6°
4
Windvlaag: 7.8 m/s
78%
13:00
21°
1009.7 hPa
15%
16.8°
4
Windvlaag: 7.1 m/s
82%
14:00
21°
1009.5 hPa
68%
16.8°
4
Windvlaag: 7 m/s
61%
15:00
21°
1009.1 hPa
81%
17.0°
4
Windvlaag: 5.9 m/s
81%
16:00
21°
1009.0 hPa
82%
17.1°
4
Windvlaag: 7.3 m/s
64%
17:00
21°
1008.9 hPa 2.3 mm
82%
16.7°
4
Windvlaag: 6.9 m/s
69%
18:00
20°
1008.9 hPa 2.4 mm
82%
16.2°
3
Windvlaag: 7.1 m/s
81%
19:00
19°
1008.7 hPa 2.5 mm
82%
15.8°
3
Windvlaag: 5.3 m/s
78% warningclass
20:00
19°
1008.6 hPa 2.5 mm
82%
15.5°
2
Windvlaag: 6 m/s
83% warningclass
21:00
18°
1008.6 hPa
82%
15.6°
3
Windvlaag: 5.9 m/s
75% warningclass
22:00
18°
1008.7 hPa
78%
15.6°
3
Windvlaag: 6 m/s
45%
23:00
17°
1008.8 hPa
77%
15.2°
3
Windvlaag: 6.2 m/s
57%
 05:57     21:38    Daglengte: 15:41 Woensdag 28 Jul
00:00
17°
1008.6 hPa
32%
15.0°
3
Windvlaag: 6.4 m/s
41%
01:00
16°
1008.4 hPa
22%
15.5°
3
Windvlaag: 7.1 m/s
63%
02:00
16°
1008.0 hPa
20%
15.6°
4
Windvlaag: 7.6 m/s
81%
03:00
17°
1007.6 hPa
26%
15.2°
5
Windvlaag: 7.9 m/s
73%
04:00
16°
1007.2 hPa
75%
14.7°
4
Windvlaag: 7.4 m/s
66%
05:00
16°
1007.0 hPa
70%
14.8°
4
Windvlaag: 9.1 m/s
64%
06:00
16°
1006.8 hPa
62%
14.7°
5
Windvlaag: 9.7 m/s
58%
07:00
16°
1006.7 hPa
20%
14.4°
5
Windvlaag: 10.4 m/s
61%
08:00
16°
1006.8 hPa
24%
14.2°
5
Windvlaag: 11 m/s
37%
09:00
16°
1006.8 hPa
82%
14.0°
6
Windvlaag: 11.4 m/s
69%
10:00
17°
1006.7 hPa
82%
14.0°
6
Windvlaag: 11.3 m/s
65%
11:00
18°
1006.2 hPa 2.1 mm
100%
12.6°
7
Windvlaag: 11.4 m/s
89%
12:00
18°
1006.3 hPa 2.5 mm
100%
12.9°
7
Windvlaag: 12.1 m/s
98% warningclass
13:00
18°
1006.5 hPa 2.5 mm
100%
13.8°
7
Windvlaag: 12.1 m/s
79%
14:00
19°
1006.6 hPa 2.5 mm
100%
13.7°
8
Windvlaag: 10.7 m/s
61%
15:00
19°
1006.9 hPa 2.2 mm
100%
14.4°
8
Windvlaag: 7.8 m/s
89%
16:00
19°
1007.1 hPa 3.4 mm
100%
13.5°
8
Windvlaag: 8.7 m/s
70%
17:00
19°
1007.2 hPa
100%
13.2°
8
Windvlaag: 8.4 m/s
69%
18:00
19°
1007.1 hPa 3.8 mm
100%
12.4°
8
Windvlaag: 10.2 m/s
74%
19:00
18°
1006.9 hPa 2.2 mm
100%
10.5°
8
Windvlaag: 10.8 m/s
22%
20:00
17°
1006.9 hPa 2.5 mm
100%
10.4°
8
Windvlaag: 11.1 m/s
22%
21:00
17°
1006.9 hPa 3.8 mm
100%
9.2°
7
Windvlaag: 10 m/s
19%
22:00
16°
1006.9 hPa 3.6 mm
100%
10.8°
7
Windvlaag: 9.9 m/s
67%
23:00
16°
1006.6 hPa 3.4 mm
100%
10.9°
6
Windvlaag: 9.1 m/s
29%
 05:59     21:36    Daglengte: 15:37 Donderdag 29 Jul
00:00
16°
1006.3 hPa 3.3 mm
87%
11.0°
6
Windvlaag: 10.2 m/s
43%
01:00
16°
1006.0 hPa 3.3 mm
93%
11.1°
7
Windvlaag: 10.8 m/s
30%
02:00
15°
1005.4 hPa 3.4 mm
100%
12.2°
7
Windvlaag: 11.8 m/s
55%
03:00
15°
1005.1 hPa 2.2 mm
100%
12.8°
7
Windvlaag: 11.5 m/s
61%
04:00
15°
1005.0 hPa 2.8 mm
100%
12.4°
7
Windvlaag: 11.3 m/s
88%
05:00
15°
1004.9 hPa 4.9 mm
97%
11.0°
6
Windvlaag: 10.8 m/s
71%
06:00
15°
1004.9 hPa 4.7 mm
30%
11.8°
5
Windvlaag: 9.7 m/s
65%
07:00
15°
1005.0 hPa 5.0 mm
25%
11.1°
7
Windvlaag: 9.7 m/s
22%
08:00
16°
1005.4 hPa 5.8 mm
28%
11.2°
6
Windvlaag: 9.8 m/s
67%
09:00
17°
1007.3 hPa
28%
11.6°
7
Windvlaag: 13.2 m/s
12%
10:00
17°
1007.6 hPa
27%
11.5°
7
Windvlaag: 13.8 m/s
33%
11:00
18°
1008.0 hPa
28%
11.9°
7
Windvlaag: 14.8 m/s
18%
12:00
18°
1008.4 hPa
27%
12.8°
7
Windvlaag: 15.4 m/s
40%
13:00
19°
1008.6 hPa
28%
13.0°
8
Windvlaag: 15.3 m/s
38%
14:00
19°
1008.6 hPa
27%
12.8°
8
Windvlaag: 14.2 m/s
16%
Temp/Neerslag /Baro Onweer/Dauwpunt
    Temp Baro Neerslag Dauwpunt Wind Bewolking  
 05:54     21:41    Daglengte: 15:47 Vandaag
17:00
20°
1008.7 hPa 2.8 mm 17.3°
4
80%
20:00
19°
1008.7 hPa 4.9 mm 16.8°
4
75%
23:00
17°
1009.8 hPa 4.2 mm 16.6°
3
85%
 05:56     21:39    Daglengte: 15:43 Morgen
02:00
16°
1010.0 hPa   15.3°
3
17%
05:00
16°
1009.8 hPa   15.8°
2
57%
08:00
17°
1009.9 hPa   15.5°
4
80%
11:00
19°
1010.2 hPa   15.5°
5
74%
14:00
21°
1009.5 hPa   16.8°
4
61%
17:00
21°
1008.9 hPa 2.3 mm 16.7°
4
69%
20:00
19°
1008.6 hPa 7.5 mm 15.5°
2
83% warningclass
23:00
17°
1008.8 hPa   15.2°
3
57%
 05:57     21:38    Daglengte: 15:41 Woensdag 28 Jul
02:00
16°
1008.0 hPa   15.6°
4
81%
05:00
16°
1007.0 hPa   14.8°
4
64%
08:00
16°
1006.8 hPa   14.2°
5
37%
11:00
18°
1006.2 hPa 2.1 mm 12.6°
7
89%
14:00
19°
1006.6 hPa 7.5 mm 13.7°
8
61%
17:00
19°
1007.2 hPa 5.6 mm 13.2°
8
69%
20:00
17°
1006.9 hPa 8.6 mm 10.4°
8
22%
23:00
16°
1006.6 hPa 10.8 mm 10.9°
6
29%
 05:59     21:36    Daglengte: 15:37 Donderdag 29 Jul
02:00
15°
1005.4 hPa 10.1 mm 12.2°
7
55%
05:00
15°
1004.9 hPa 10.0 mm 11.0°
6
71%
08:00
16°
1005.4 hPa 15.5 mm 11.2°
6
67%
11:00
18°
1008.0 hPa   11.9°
7
18%
14:00
19°
1008.6 hPa   12.8°
8
16%
17:00
20°
1009.1 hPa 20.0 mm 9.4°
9
0%
20:00
18°
1009.1 hPa 20.2 mm 12.1°
7
0%
23:00
16°
1009.4 hPa 20.3 mm 12.6°
5
0%
 06:00     21:34    Daglengte: 15:34 Vrijdag 30 Jul
02:00
15°
1009.6 hPa 20.4 mm 11.9°
4
0%
05:00
14°
1009.4 hPa 20.4 mm 12.6°
3
0%
08:00
16°
1009.8 hPa 20.4 mm 13.2°
4
0%
11:00
19°
1010.1 hPa 20.4 mm 9.9°
6
1%
14:00
21°
1009.6 hPa 20.4 mm 9.2°
5
1%
17:00
21°
1008.9 hPa 20.4 mm 9.8°
4
1%
20:00
19°
1007.9 hPa 20.4 mm 11.9°
2
1%
23:00
15°
1007.8 hPa 23.5 mm 14.4°
1
1%
 06:02     21:33    Daglengte: 15:31 Zaterdag 31 Jul
02:00
15°
1006.8 hPa 23.7 mm 14.6°
2
1%
05:00
15°
1005.4 hPa 23.7 mm 14.6°
3
1%
08:00
14°
1005.0 hPa 23.7 mm 12.6°
4
1%
11:00
17°
1003.5 hPa 23.9 mm 12.3°
6
1%
14:00
15°
1001.7 hPa 26.3 mm 13.8°
5
1%
17:00
17°
1001.9 hPa 28.9 mm 15.0°
5
1%
20:00
16°
1005.1 hPa 29.4 mm 13.6°
5
1%
23:00
14°
1006.6 hPa 29.4 mm 13.1°
3
0%
 06:03     21:31    Daglengte: 15:28 Zondag 01 Aug
02:00
13°
1006.8 hPa 29.4 mm 12.9°
2
0%
05:00
14°
1006.3 hPa 29.4 mm 13.2°
2
1%
08:00
14°
1006.3 hPa 31.1 mm 13.6°
1
1%
11:00
14°
1006.7 hPa 33.0 mm 13.4°
1
1%
14:00
16°
1007.3 hPa 35.2 mm 14.3°
4
1%
17:00
18°
1008.5 hPa 36.4 mm 12.6°
5
1%
20:00
16°
1009.8 hPa 36.6 mm 10.8°
4
1%
23:00
13°
1011.5 hPa 36.6 mm 9.7°
3
0%
 06:05     21:29    Daglengte: 15:24 Maandag 02 Aug
02:00
12°
1012.5 hPa 36.7 mm 10.3°
3
0%
05:00
12°
1012.8 hPa 36.7 mm 10.0°
3
0%
08:00
14°
1013.9 hPa 37.3 mm 11.6°
3
0%
11:00
17°
1015.1 hPa 37.5 mm 7.9°
5
0%
14:00
19°
1015.6 hPa 75.1 mm 6.2°
5
0%
20:00
17°
1015.2 hPa 75.1 mm 9.3°
2
1%
 06:06     21:27    Daglengte: 15:21 Dinsdag 03 Aug
02:00
12°
1015.2 hPa 75.1 mm 9.1°
3
0%
08:00
15°
1014.5 hPa 75.2 mm 11.3°
3
1%
14:00
20°
1014.4 hPa 75.3 mm 9.4°
6
0%
20:00
19°
1013.0 hPa 75.3 mm 12.1°
5
1%
 06:08     21:26    Daglengte: 15:18 Woensdag 04 Aug
02:00
17°
1011.3 hPa 75.3 mm 12.3°
6
1%
08:00
17°
1009.7 hPa 75.3 mm 12.5°
6
1%
14:00
18°
1008.5 hPa 76.9 mm 15.0°
8
1%
20:00
18°
1007.5 hPa 80.2 mm 12.4°
7
1%
 06:10     21:24    Daglengte: 15:14 Donderdag 05 Aug
02:00
14°
1007.8 hPa 82.7 mm 12.8°
4
0%
08:00
15°
1006.9 hPa 83.1 mm 13.3°
4
1%
14:00
20°
1009.8 hPa 1.2 mm 12.2°
4
74%
20:00
18°
1008.5 hPa 1.4 mm 12.7°
2
74%
 06:11     21:22    Daglengte: 15:11 Vrijdag 06 Aug
02:00
15°
1007.8 hPa 0.7 mm 12.2°
2
60%
08:00
15°
1007.2 hPa 0.7 mm 12.4°
2
56%
14:00
19°
1007.7 hPa 1.4 mm 11.7°
4
62%
20:00
17°
1007.0 hPa 1.4 mm 12.2°
2
60%
 06:13     21:20    Daglengte: 15:07 Zaterdag 07 Aug
02:00
15°
1007.0 hPa 0.7 mm 12.2°
2
55%
08:00
15°
1006.8 hPa 0.5 mm 12.3°
3
58%
14:00
19°
1007.7 hPa 1.6 mm 12.3°
5
74%
20:00
17°
1008.2 hPa 2.2 mm 12.0°
4
65%
 06:14     21:18    Daglengte: 15:04 Zondag 08 Aug
02:00
14°
1009.1 hPa 0.7 mm 11.6°
3
61%
08:00
15°
1008.8 hPa 1.3 mm 12.3°
3
66%
14:00
18°
1010.2 hPa 2.0 mm 12.3°
5
75%
20:00
17°
1010.9 hPa 0.9 mm 11.9°
4
67%
 06:16     21:16    Daglengte: 15:00 Maandag 09 Aug
02:00
15°
1011.6 hPa 0.6 mm 11.6°
3
68%
08:00
15°
1011.9 hPa 0.6 mm 11.8°
4
69%
14:00
19°
1013.4 hPa 1.4 mm 11.5°
5
64%
20:00
17°
1013.8 hPa 0.6 mm 11.3°
4
65%
 06:18     21:14    Daglengte: 14:56 Dinsdag 10 Aug
02:00
14°
1014.5 hPa 0.5 mm 11.3°
2
53%
08:00
15°
1014.6 hPa 0.8 mm 12.0°
2
49%
14:00
20°
1015.7 hPa 0.8 mm 11.4°
4
51%
  CAPE Lifted Index Hail Supercell Tornado SRH 3km CL BTM PRES CL TOP PRES Swiss DWD icon SMHI TS
 05:54     21:41    Daglengte: 15:47 Vandaag
17:00 429 J/kg -1.9 K 0 % 0 % 0 % 0 m²/s² 0 0 -0.16 95
18:00 649 J/kg -2.5 K 0 % 0 % 0 % 0 m²/s² 0 0 -0.94 95
19:00 642 J/kg -2.7 K 0 % 0 % 0 % 0 m²/s² 0 0 -1.35 80
20:00 553 J/kg -2.4 K 0 % 0 % 0 % 0 m²/s² 0 0 -1.11 80
21:00 212 J/kg -1.2 K 0 % 0 % 0 % 0 m²/s² 0 0 0.48 95
22:00 186 J/kg -1.0 K 0 % 0 % 0 % 0 m²/s² 0 0 0.35 95
23:00 103 J/kg -0.7 K 0 % 0 % 0 % 0 m²/s² 0 0 0.53 80
 05:56     21:39    Daglengte: 15:43 Morgen
00:00 125 J/kg -0.9 K 0 % 0 % 0 % 0 m²/s² 0 0 -0.57 3
01:00 16 J/kg -0.1 K 0 % 0 % 0 % 0 m²/s² 0 0 0.41 3
02:00 1 J/kg 1.1 K 0 % 0 % 0 % 0 m²/s² 0 0 2.39 2
03:00 1 J/kg 0.4 K 0 % 0 % 0 % 0 m²/s² 0 0 1.96 2
04:00 1 J/kg -0.4 K 0 % 0 % 0 % 0 m²/s² 0 0 1.58 3
05:00 0 J/kg -0.6 K 0 % 0 % 0 % 0 m²/s² 0 0 1.95 3
06:00 0 J/kg -1.3 K 0 % 0 % 0 % 0 m²/s² 0 0 1.1 3
07:00 0 J/kg -0.8 K 0 % 0 % 0 % 0 m²/s² 0 0 1.9 3
08:00 0 J/kg -0.7 K 0 % 0 % 0 % 0 m²/s² 0 0 1.22 3
09:00 0 J/kg -0.8 K 0 % 0 % 0 % 0 m²/s² 0 0 1.39 3
10:00 216 J/kg -2.2 K 0 % 0 % 0 % 0 m²/s² 0 0 0.41 3
11:00 369 J/kg -2.2 K 0 % 0 % 0 % 0 m²/s² 0 0 -0.01 3
12:00 0 J/kg 2.3 K 0 % 0 % 0 % 0 m²/s² 0 0 2.87 3
13:00 0 J/kg 1.4 K 0 % 0 % 0 % 0 m²/s² 0 0 2.18 3
14:00 75 J/kg 0.0 K 0 % 0 % 0 % 0 m²/s² 0 0 0.69 2
15:00 69 J/kg -0.3 K 0 % 0 % 0 % 0 m²/s² 0 0 0.54 3
16:00 39 J/kg -0.2 K 0 % 0 % 0 % 0 m²/s² 0 0 0.7 3
17:00 0 J/kg -0.2 K 0 % 0 % 0 % 0 m²/s² 0 0 0.64 80
18:00 4 J/kg -0.3 K 0 % 0 % 0 % 0 m²/s² 0 0 0.45 80
19:00 101 J/kg -0.8 K 0 % 0 % 0 % 0 m²/s² 0 0 0.43 95
20:00 0 J/kg 0.1 K 0 % 0 % 0 % 0 m²/s² 0 0 1.03 95
21:00 33 J/kg -0.3 K 0 % 0 % 0 % 0 m²/s² 0 0 0.69 95
22:00 298 J/kg -1.4 K 0 % 0 % 0 % 0 m²/s² 0 0 0.04 80
23:00 314 J/kg -1.3 K 0 % 0 % 0 % 0 m²/s² 0 0 0.11 3
 05:57     21:38    Daglengte: 15:41 Woensdag 28 Jul
00:00 232 J/kg -1.1 K 0 % 0 % 0 % 0 m²/s² 0 0 -0.44 3
01:00 247 J/kg -1.1 K 0 % 0 % 0 % 0 m²/s² 0 0 -0.59 3
02:00 235 J/kg -1.4 K 0 % 0 % 0 % 0 m²/s² 0 0 -0.65 3
03:00 133 J/kg -1.2 K 0 % 0 % 0 % 0 m²/s² 0 0 0.15 3
04:00 76 J/kg -0.1 K 0 % 0 % 0 % 0 m²/s² 0 0 1.64 3
05:00 62 J/kg 0.4 K 0 % 0 % 0 % 0 m²/s² 0 0 1.75 3
06:00 19 J/kg 0.8 K 0 % 0 % 0 % 0 m²/s² 0 0 1.94 3
07:00 17 J/kg 0.6 K 0 % 0 % 0 % 0 m²/s² 0 0 2.16 3
08:00 4 J/kg 1.6 K 0 % 0 % 0 % 0 m²/s² 0 0 3.4 3
09:00 4 J/kg 2.5 K 0 % 0 % 0 % 0 m²/s² 0 0 4.36 3
10:00 9 J/kg 2.4 K 0 % 0 % 0 % 0 m²/s² 0 0 4.47 80
11:00 39 J/kg 1.7 K 0 % 0 % 0 % 0 m²/s² 0 0 4.82 80
12:00 91 J/kg 0.8 K 0 % 0 % 0 % 0 m²/s² 0 0 2.99 95
13:00 172 J/kg 0.3 K 0 % 0 % 0 % 0 m²/s² 0 0 2.16 80
14:00 282 J/kg -0.3 K 0 % 0 % 0 % 0 m²/s² 0 0 1.8 3
15:00 386 J/kg -0.9 K 0 % 0 % 0 % 0 m²/s² 0 0 1.62 80
16:00 314 J/kg -0.8 K 0 % 0 % 0 % 0 m²/s² 0 0 1.93 80
17:00 431 J/kg -1.7 K 0 % 0 % 0 % 0 m²/s² 0 0 0.82 3
18:00 294 J/kg -1.1 K 0 % 0 % 0 % 0 m²/s² 0 0 1.87 3
19:00 53 J/kg 0.6 K 0 % 0 % 0 % 0 m²/s² 0 0 4.08 3
20:00 51 J/kg 0.7 K 0 % 0 % 0 % 0 m²/s² 0 0 4.27 80
21:00 20 J/kg 2.1 K 0 % 0 % 0 % 0 m²/s² 0 0 5.49 80
22:00 149 J/kg 1.0 K 0 % 0 % 0 % 0 m²/s² 0 0 4.84 80
23:00 120 J/kg 1.5 K 0 % 0 % 0 % 0 m²/s² 0 0 5.16 80
 05:59     21:36    Daglengte: 15:37 Donderdag 29 Jul
00:00 130 J/kg 2.2 K 0 % 0 % 0 % 0 m²/s² 0 0 7.87 2
01:00 157 J/kg 2.5 K 0 % 0 % 0 % 0 m²/s² 0 0 8.17 2
02:00 258 J/kg 2.4 K 0 % 0 % 0 % 0 m²/s² 0 0 7.32 80
03:00 330 J/kg 2.2 K 0 % 0 % 0 % 0 m²/s² 0 0 5.92 80
04:00 383 J/kg 1.8 K 0 % 0 % 0 % 0 m²/s² 0 0 5.22 80
05:00 109 J/kg 5.0 K 0 % 0 % 0 % 0 m²/s² 0 0 7.37 2
06:00 418 J/kg 2.5 K 0 % 0 % 0 % 0 m²/s² 0 0 5.29 2
07:00 396 J/kg 2.6 K 0 % 0 % 0 % 0 m²/s² 0 0 4.49 2
08:00 369 J/kg 1.9 K 0 % 0 % 0 % 0 m²/s² 0 0 4.93 2
09:00 384 J/kg 1.2 K 0 % 0 % 0 % 0 m²/s² 0 0 3.99 2
10:00 384 J/kg 0.9 K 0 % 0 % 0 % 0 m²/s² 0 0 2.28 2
11:00 412 J/kg 0.9 K 0 % 0 % 0 % 0 m²/s² 0 0 2.13 2
12:00 513 J/kg -0.5 K 0 % 0 % 0 % 0 m²/s² 0 0 1.09 2
13:00 385 J/kg -0.5 K 0 % 0 % 0 % 0 m²/s² 0 0 2.47 1
14:00 288 J/kg -0.7 K 0 % 0 % 0 % 0 m²/s² 0 0 3.5 1
Temp Baro Wind Neerslag
  EWN Forecast EWN WRFDA DWD ICON FMI HIRLAM MET Norway GFS
 05:54     21:41    Daglengte: 15:47 Vandaag
17:00 19.9° 1008.7 hPa 4.1 m/s 2.8 mm 18.3° 1008.7 hPa 2.8 m/s 5.0 mm 20.1° 1008.9 hPa 3.1 m/s 3.3 mm 21.1° 1008.0 hPa 4.8 m/s 0.0 mm 20.8° 1008.8 hPa 2.6 m/s
20:00 18.6° 1008.7 hPa 4.0 m/s 4.9 mm 18.9° 1008.6 hPa 2.9 m/s 15.1 mm 18.6° 1008.7 hPa 2.2 m/s 3.3 mm 18.8° 1008.4 hPa 4.6 m/s 0.0 mm 18.8° 1008.8 hPa 2.3 m/s
23:00 17.5° 1009.8 hPa 3.5 m/s 4.2 mm 16.2° 1009.5 hPa 3.0 m/s 15.2 mm 17.4° 1010.2 hPa 2.7 m/s 2.0 mm 17.9° 1009.3 hPa 4.0 m/s 0.0 mm 15.9° 1009.7 hPa 2.1 m/s
 05:56     21:39    Daglengte: 15:43 Morgen
02:00 16.4° 1010.0 hPa 3.3 m/s 0.0 mm 15.2° 1009.1 hPa 2.6 m/s 15.5 mm 16.4° 1010.2 hPa 2.2 m/s 0.1 mm 16.8° 1009.2 hPa 3.5 m/s 0.0 mm 15.3° 1010.4 hPa 2.2 m/s
05:00 16.0° 1009.8 hPa 2.4 m/s 0.0 mm 14.9° 1008.3 hPa 2.4 m/s 15.5 mm 16.3° 1010.2 hPa 2.2 m/s 0.0 mm 15.2° 1008.9 hPa 2.2 m/s 0.0 mm 14.5° 1009.9 hPa 2.4 m/s
08:00 16.8° 1009.9 hPa 3.7 m/s 0.0 mm 16.6° 1008.7 hPa 3.3 m/s 15.5 mm 16.7° 1010.5 hPa 4.0 m/s 0.0 mm 16.8° 1009.0 hPa 2.9 m/s 0.0 mm 16.0° 1009.9 hPa 3.2 m/s
11:00 19.2° 1010.2 hPa 4.5 m/s 0.0 mm 18.1° 1009.1 hPa 5.8 m/s 15.7 mm 19.7° 1010.5 hPa 4.5 m/s 0.0 mm 19.6° 1009.5 hPa 3.2 m/s 0.0 mm 20.0° 1009.6 hPa 4.1 m/s
14:00 20.8° 1009.5 hPa 4.2 m/s 0.0 mm 21.2° 1009.5 hPa 3.7 m/s 25.3 mm 22.2° 1010.2 hPa 4.5 m/s 0.0 mm 20.9° 1008.8 hPa 2.7 m/s 0.0 mm 21.6° 1009.5 hPa 5.4 m/s
17:00 20.7° 1008.9 hPa 3.8 m/s 2.3 mm 21.6° 1008.4 hPa 4.3 m/s 27.1 mm 20.8° 1009.6 hPa 3.7 m/s 0.4 mm 21.2° 1008.0 hPa 1.9 m/s 0.0 mm 20.9° 1009.2 hPa 4.1 m/s
20:00 18.9° 1008.6 hPa 2.3 m/s 7.5 mm 18.8° 1007.9 hPa 3.7 m/s 27.7 mm 18.9° 1009.2 hPa 1.6 m/s 3.6 mm 20.3° 1007.3 hPa 1.9 m/s 0.0 mm 20.6° 1008.6 hPa 2.7 m/s
23:00 17.4° 1008.8 hPa 3.5 m/s 0.0 mm 17.3° 1008.3 hPa 2.6 m/s 27.8 mm 17.4° 1009.2 hPa 3.1 m/s 4.6 mm 18.0° 1008.5 hPa 3.5 m/s 0.0 mm 16.7° 1009.1 hPa 2.9 m/s
 05:57     21:38    Daglengte: 15:41 Woensdag 28 Jul
02:00 16.4° 1008.0 hPa 3.6 m/s 0.0 mm 16.0° 1007.2 hPa 2.2 m/s 27.8 mm 16.9° 1008.0 hPa 3.6 m/s 0.0 mm 16.4° 1008.5 hPa 3.1 m/s 0.0 mm 15.5° 1008.5 hPa 3.3 m/s
05:00 16.2° 1007.0 hPa 4.5 m/s 0.0 mm 15.2° 1006.5 hPa 3.1 m/s 27.8 mm 16.5° 1007.0 hPa 3.6 m/s 0.0 mm 15.6° 1007.8 hPa 4.4 m/s 0.0 mm 14.8° 1007.6 hPa 4.4 m/s
08:00 16.1° 1006.8 hPa 5.4 m/s 0.0 mm 15.9° 1006.5 hPa 4.5 m/s 27.8 mm 16.7° 1006.1 hPa 4.3 m/s 0.0 mm 16.0° 1008.0 hPa 5.2 m/s 0.0 mm 15.7° 1007.8 hPa 5.5 m/s
11:00 17.8° 1006.2 hPa 6.7 m/s 2.1 mm 18.5° 1006.1 hPa 6.4 m/s 27.8 mm 17.9° 1006.0 hPa 6.1 m/s 0.6 mm 17.0° 1007.6 hPa 6.5 m/s
14:00 19.0° 1006.6 hPa 7.7 m/s 7.5 mm 19.9° 1006.4 hPa 7.8 m/s 28.3 mm 19.2° 1006.6 hPa 6.9 m/s 1.4 mm 17.9° 1008.1 hPa 7.0 m/s
17:00 18.9° 1007.2 hPa 7.8 m/s 5.6 mm 19.9° 1006.7 hPa 7.9 m/s 29.1 mm 18.3° 1007.4 hPa 6.7 m/s 0.5 mm 20.5° 1007.9 hPa 7.7 m/s
20:00 17.2° 1006.9 hPa 7.8 m/s 8.6 mm 18.6° 1006.4 hPa 9.0 m/s 29.1 mm 16.9° 1007.0 hPa 5.4 m/s 0.6 mm 18.2° 1007.0 hPa 6.4 m/s
23:00 16.1° 1006.6 hPa 6.4 m/s 10.8 mm 17.4° 1005.8 hPa 6.7 m/s 29.1 mm 16.0° 1006.6 hPa 5.3 m/s 1.6 mm 16.8° 1006.3 hPa 7.0 m/s
 05:59     21:36    Daglengte: 15:37 Donderdag 29 Jul
02:00 15.4° 1005.4 hPa 7.0 m/s 10.1 mm 16.3° 1004.9 hPa 7.1 m/s 29.2 mm 15.4° 1006.2 hPa 5.5 m/s 0.5 mm 14.5° 1005.8 hPa 7.5 m/s
05:00 14.7° 1004.9 hPa 5.6 m/s 10.0 mm 14.9° 1004.1 hPa 5.4 m/s 33.8 mm 14.8° 1006.6 hPa 4.8 m/s 0.7 mm 13.6° 1005.8 hPa 6.9 m/s
08:00 15.5° 1005.4 hPa 6.4 m/s 15.5 mm 15.9° 1004.0 hPa 8.3 m/s 38.8 mm 15.8° 1007.5 hPa 5.0 m/s 0.0 mm 13.9° 1005.8 hPa 8.3 m/s
11:00 17.8° 1008.0 hPa 7.4 m/s 0.0 mm 17.0° 1004.8 hPa 10.9 m/s 41.3 mm 18.0° 1008.9 hPa 6.6 m/s 0.0 mm 17.5° 1007.8 hPa 8.2 m/s
14:00 19.0° 1008.6 hPa 7.7 m/s 0.0 mm 18.1° 1005.6 hPa 10.3 m/s 44.0 mm 19.2° 1009.4 hPa 7.0 m/s 0.0 mm 18.4° 1009.2 hPa 8.6 m/s
17:00 19.8° 1009.1 hPa 8.7 m/s 20.0 mm 19.8° 1009.1 hPa 8.7 m/s 20.0 mm
20:00 17.8° 1009.1 hPa 7.4 m/s 20.2 mm 17.8° 1009.1 hPa 7.4 m/s 20.2 mm
23:00 16.4° 1009.4 hPa 5.4 m/s 20.3 mm 16.4° 1009.4 hPa 5.4 m/s 20.3 mm
 06:00     21:34    Daglengte: 15:34 Vrijdag 30 Jul
02:00 15.5° 1009.6 hPa 4.1 m/s 20.4 mm 15.5° 1009.6 hPa 4.1 m/s 20.4 mm
05:00 14.3° 1009.4 hPa 3.5 m/s 20.4 mm 14.3° 1009.4 hPa 3.5 m/s 20.4 mm
08:00 15.7° 1009.8 hPa 4.0 m/s 20.4 mm 15.7° 1009.8 hPa 4.0 m/s 20.4 mm
11:00 19.1° 1010.1 hPa 5.5 m/s 20.4 mm 19.1° 1010.1 hPa 5.5 m/s 20.4 mm
14:00 20.9° 1009.6 hPa 5.2 m/s 20.4 mm 20.9° 1009.6 hPa 5.2 m/s 20.4 mm
17:00 21.3° 1008.9 hPa 4.3 m/s 20.4 mm 21.3° 1008.9 hPa 4.3 m/s 20.4 mm
20:00 18.7° 1007.9 hPa 1.7 m/s 20.4 mm 18.7° 1007.9 hPa 1.7 m/s 20.4 mm
23:00 15.0° 1007.8 hPa 0.7 m/s 23.5 mm 15.0° 1007.8 hPa 0.7 m/s 23.5 mm
 06:02     21:33    Daglengte: 15:31 Zaterdag 31 Jul
02:00 15.1° 1006.8 hPa 2.5 m/s 23.7 mm 15.1° 1006.8 hPa 2.5 m/s 23.7 mm
05:00 15.1° 1005.4 hPa 3.2 m/s 23.7 mm 15.1° 1005.4 hPa 3.2 m/s 23.7 mm
08:00 14.2° 1005.0 hPa 3.7 m/s 23.7 mm 14.2° 1005.0 hPa 3.7 m/s 23.7 mm
11:00 17.5° 1003.5 hPa 5.7 m/s 23.9 mm 17.5° 1003.5 hPa 5.7 m/s 23.9 mm
14:00 15.3° 1001.7 hPa 5.4 m/s 26.3 mm 15.3° 1001.7 hPa 5.4 m/s 26.3 mm
17:00 17.2° 1001.9 hPa 5.3 m/s 28.9 mm 17.2° 1001.9 hPa 5.3 m/s 28.9 mm
20:00 16.3° 1005.1 hPa 5.0 m/s 29.4 mm 16.3° 1005.1 hPa 5.0 m/s 29.4 mm
23:00 14.0° 1006.6 hPa 3.3 m/s 29.4 mm 14.0° 1006.6 hPa 3.3 m/s 29.4 mm
 06:03     21:31    Daglengte: 15:28 Zondag 01 Aug
02:00 13.4° 1006.8 hPa 2.2 m/s 29.4 mm 13.4° 1006.8 hPa 2.2 m/s 29.4 mm
05:00 13.9° 1006.3 hPa 1.7 m/s 29.4 mm 13.9° 1006.3 hPa 1.7 m/s 29.4 mm
08:00 14.1° 1006.3 hPa 1.3 m/s 31.1 mm 14.1° 1006.3 hPa 1.3 m/s 31.1 mm
11:00 14.1° 1006.7 hPa 1.0 m/s 33.0 mm 14.1° 1006.7 hPa 1.0 m/s 33.0 mm
14:00 16.3° 1007.3 hPa 4.0 m/s 35.2 mm 16.3° 1007.3 hPa 4.0 m/s 35.2 mm
17:00 17.6° 1008.5 hPa 5.2 m/s 36.4 mm 17.6° 1008.5 hPa 5.2 m/s 36.4 mm
20:00 16.0° 1009.8 hPa 4.2 m/s 36.6 mm 16.0° 1009.8 hPa 4.2 m/s 36.6 mm
23:00 12.7° 1011.5 hPa 2.7 m/s 36.6 mm 12.7° 1011.5 hPa 2.7 m/s 36.6 mm
 06:05     21:29    Daglengte: 15:24 Maandag 02 Aug
02:00 12.2° 1012.5 hPa 3.0 m/s 36.7 mm 12.2° 1012.5 hPa 3.0 m/s 36.7 mm
05:00 11.9° 1012.8 hPa 3.0 m/s 36.7 mm 11.9° 1012.8 hPa 3.0 m/s 36.7 mm
08:00 13.6° 1013.9 hPa 3.2 m/s 37.3 mm 13.6° 1013.9 hPa 3.2 m/s 37.3 mm
11:00 17.2° 1015.1 hPa 4.9 m/s 37.5 mm 17.2° 1015.1 hPa 4.9 m/s 37.5 mm
14:00 18.8° 1015.6 hPa 4.9 m/s 37.6 mm 18.8° 1015.6 hPa 4.9 m/s 37.6 mm
20:00 16.8° 1015.2 hPa 2.2 m/s 37.6 mm 16.8° 1015.2 hPa 2.2 m/s 37.6 mm
 06:06     21:27    Daglengte: 15:21 Dinsdag 03 Aug
02:00 12.4° 1015.2 hPa 2.6 m/s 37.6 mm 12.4° 1015.2 hPa 2.6 m/s 37.6 mm
08:00 14.7° 1014.5 hPa 3.4 m/s 37.6 mm 14.7° 1014.5 hPa 3.4 m/s 37.6 mm
14:00 20.5° 1014.4 hPa 6.0 m/s 37.6 mm 20.5° 1014.4 hPa 6.0 m/s 37.6 mm
20:00 18.8° 1013.0 hPa 5.2 m/s 37.6 mm 18.8° 1013.0 hPa 5.2 m/s 37.6 mm
 06:08     21:26    Daglengte: 15:18 Woensdag 04 Aug
02:00 16.9° 1011.3 hPa 5.6 m/s 37.6 mm 16.9° 1011.3 hPa 5.6 m/s 37.6 mm
08:00 16.9° 1009.7 hPa 6.1 m/s 37.6 mm 16.9° 1009.7 hPa 6.1 m/s 37.7 mm
14:00 18.1° 1008.5 hPa 7.7 m/s 39.0 mm 18.1° 1008.5 hPa 7.7 m/s 39.0 mm
20:00 17.9° 1007.5 hPa 6.7 m/s 40.4 mm 17.9° 1007.5 hPa 6.7 m/s 40.4 mm
 06:10     21:24    Daglengte: 15:14 Donderdag 05 Aug
02:00 14.5° 1007.8 hPa 3.6 m/s 41.4 mm 14.5° 1007.8 hPa 3.6 m/s 41.4 mm
08:00 15.3° 1006.9 hPa 4.2 m/s 41.6 mm 15.3° 1006.9 hPa 4.2 m/s 41.6 mm
14:00 19.6° 1009.8 hPa 3.5 m/s 1.2 mm
20:00 17.9° 1008.5 hPa 2.0 m/s 1.4 mm
 06:11     21:22    Daglengte: 15:11 Vrijdag 06 Aug
02:00 14.9° 1007.8 hPa 1.8 m/s 0.7 mm
08:00 15.1° 1007.2 hPa 2.3 m/s 0.7 mm
14:00 19.1° 1007.7 hPa 3.5 m/s 1.4 mm
20:00 17.4° 1007.0 hPa 2.2 m/s 1.4 mm
 06:13     21:20    Daglengte: 15:07 Zaterdag 07 Aug
02:00 14.6° 1007.0 hPa 2.3 m/s 0.7 mm
08:00 15.1° 1006.8 hPa 2.9 m/s 0.5 mm
14:00 18.7° 1007.7 hPa 4.9 m/s 1.6 mm
20:00 17.1° 1008.2 hPa 4.1 m/s 2.2 mm
 06:14     21:18    Daglengte: 15:04 Zondag 08 Aug
02:00 14.5° 1009.1 hPa 3.1 m/s 0.7 mm
08:00 15.0° 1008.8 hPa 3.4 m/s 1.3 mm
14:00 18.4° 1010.2 hPa 5.2 m/s 2.0 mm
20:00 17.1° 1010.9 hPa 4.0 m/s 0.9 mm
 06:16     21:16    Daglengte: 15:00 Maandag 09 Aug
02:00 14.6° 1011.6 hPa 3.3 m/s 0.6 mm
08:00 15.0° 1011.9 hPa 3.7 m/s 0.6 mm
14:00 18.6° 1013.4 hPa 5.3 m/s 1.4 mm
20:00 17.0° 1013.8 hPa 3.5 m/s 0.6 mm
 06:18     21:14    Daglengte: 14:56 Dinsdag 10 Aug
02:00 14.3° 1014.5 hPa 2.4 m/s 0.5 mm
08:00 14.9° 1014.6 hPa 2.4 m/s 0.8 mm
14:00 19.5° 1015.7 hPa 4.4 m/s 0.8 mm